GW6384 Weather Reports


time (UTC)temp
F
wind
direction
speed
knots
gust
knots
rain 1hr
in
rain 24hr
in
rain mn
in
humidity
%
barometer
mb
20260906182324 100 83 1.7 9.6 0.00 0.00 0.00 43 437.9
20260906181824 100 89 3.5 9.6 0.00 0.00 0.00 42 486.0
20260906181322 100 109 3.5 9.6 0.00 0.00 0.00 43 509.4
20260906180821 99 158 2.6 9.6 0.00 0.00 0.00 43 538.3
20260906175249 98 89 0.0 9.6 0.00 0.00 0.00 46 407.1
20260906174748 98 94 1.7 9.6 0.00 0.00 0.00 45 410.7
20260906174247 98 104 1.7 9.6 0.00 0.00 0.00 46 377.2
20260906173746 97 60 0.0 9.6 0.00 0.00 0.00 48 332.0
20260906173245 97 69 1.7 9.6 0.00 0.00 0.00 48 331.4
20260906172744 97 53 0.0 9.6 0.00 0.00 0.00 47 314.4
20260906172243 97 56 0.0 9.6 0.00 0.00 0.00 48 315.4
20260906171742 97 60 0.9 9.6 0.00 0.00 0.00 47 341.6
20260906171241 97 79 1.7 9.6 0.00 0.00 0.00 47 342.7
20260906170740 97 54 0.0 9.6 0.00 0.00 0.00 48 331.9
20260906165207 97 47 2.6 9.6 0.00 0.00 0.00 49 308.1
20260906164706 97 42 1.7 9.6 0.00 0.00 0.00 50 349.1
20260906163650 96 64 1.7 9.6 0.00 0.00 0.00 51 381.0
20260906163150 96 88 2.6 9.6 0.00 0.00 0.00 51 375.0
20260906162648 95 79 1.7 9.6 0.00 0.00 0.00 52 365.5
20260906162148 95 72 0.9 9.6 0.00 0.00 0.00 53 375.7
20260906160616 94 78 0.0 9.6 0.00 0.00 0.00 55 402.5
20260906160116 94 85 3.5 9.6 0.00 0.00 0.00 55 419.0
20260906155614 93 100 1.7 9.6 0.00 0.00 0.00 56 424.4
20260906155115 93 102 3.5 9.6 0.00 0.00 0.00 55 412.2
20260906154058 92 112 0.0 9.6 0.00 0.00 0.00 59 423.6
20260906153556 92 83 0.0 9.6 0.00 0.00 0.00 61 380.1
20260906153057 91 68 1.7 9.6 0.00 0.00 0.00 61 379.7
20260906152556 91 78 0.9 9.6 0.00 0.00 0.00 62 383.6
20260906152056 90 77 0.9 9.6 0.00 0.00 0.00 63 376.8
20260906151556 90 65 0.0 9.6 0.00 0.00 0.00 65 376.5
20260906151054 89 70 0.9 9.6 0.00 0.00 0.00 66 401.3
20260906150555 89 87 0.0 9.6 0.00 0.00 0.00 67 414.3
20260906150053 89 87 0.0 9.6 0.00 0.00 0.00 67 412.0
20260906145038 87 85 0.0 9.6 0.00 0.00 0.00 68 403.0
20260906144538 87 83 0.0 9.6 0.00 0.00 0.00 70 396.3
20260906143522 86 78 0.0 9.6 0.00 0.00 0.00 71 378.4
20260906143021 85 76 0.0 9.6 0.00 0.00 0.00 73 367.3
20260906142520 84 73 0.0 9.6 0.00 0.00 0.00 74 354.9
20260906142019 84 63 0.9 9.6 0.00 0.00 0.00 75 339.6
20260906141518 83 68 0.0 9.6 0.00 0.00 0.00 77 333.5
20260906141018 82 58 0.0 9.6 0.00 0.00 0.00 78 315.1
20260906140002 81 46 0.0 9.6 0.00 0.00 0.00 81 295.1
20260906135502 81 45 0.0 9.6 0.00 0.00 0.00 81 295.9
20260906135002 80 47 0.0 9.6 0.00 0.00 0.00 83 298.3
20260906134502 79 47 0.0 9.6 0.00 0.00 0.00 84 298.1
20260906134002 79 47 0.0 9.6 0.00 0.00 0.00 84 297.3
20260906133502 78 47 0.0 9.6 0.00 0.00 0.00 85 297.0
20260906133001 78 47 0.0 9.6 0.00 0.00 0.00 86 297.2
20260906132502 77 47 0.0 9.6 0.00 0.00 0.00 87 296.8
20260906132002 76 47 0.0 9.6 0.00 0.00 0.00 88 295.9
20260906131502 76 46 0.0 9.6 0.00 0.00 0.00 89 294.2
20260906131002 75 46 0.0 9.6 0.00 0.00 0.00 90 294.0
20260906125946 74 46 0.0 9.6 0.00 0.00 0.00 91 293.7
20260906125445 74 46 0.0 9.6 0.00 0.00 0.00 91 293.7
20260906124943 73 46 0.0 9.6 0.00 0.00 0.00 91 293.7
20260906124443 73 46 0.0 9.6 0.00 0.00 0.00 91 293.7
20260906123942 73 46 0.0 9.6 0.00 0.00 0.00 91 293.6
20260906123441 73 46 0.0 9.6 0.00 0.00 0.00 91 293.6
20260906122424 73 46 0.0 9.6 0.00 0.00 0.00 91 292.8
20260906121409 73 46 0.0 9.6 0.00 0.00 0.00 90 291.7
20260906120908 73 46 0.0 9.6 0.00 0.00 0.00 90 291.8
20260906120408 73 46 0.0 9.6 0.00 0.00 0.00 90 291.0
20260906115907 73 46 0.0 9.6 0.00 0.00 0.00 90 291.3
20260906115407 73 46 0.0 9.6 0.00 0.00 0.00 90 291.4
20260906114907 73 46 0.0 9.6 0.00 0.00 0.00 89 292.1
20260906114406 73 46 0.0 9.6 0.00 0.00 0.00 89 292.4
20260906113350 73 46 0.0 9.6 0.00 0.00 0.00 90 292.0
20260906112849 73 46 0.0 9.6 0.00 0.00 0.00 90 291.8
20260906112348 73 46 0.0 9.6 0.00 0.00 0.00 90 291.9
20260906111848 73 46 0.0 9.6 0.00 0.00 0.00 89 292.2
20260906111347 73 46 0.0 9.6 0.00 0.00 0.00 88 292.2
20260906110846 73 46 0.0 9.6 0.00 0.00 0.00 88 292.0
20260906110345 74 46 0.0 9.6 0.00 0.00 0.00 89 292.1
20260906105845 74 46 0.0 9.6 0.00 0.00 0.00 89 292.0
20260906105344 74 46 0.0 9.6 0.00 0.00 0.00 89 291.7
20260906104327 74 46 0.0 9.6 0.00 0.00 0.00 89 291.8
20260906103312 74 46 0.0 9.6 0.00 0.00 0.00 88 292.1
20260906102256 74 46 0.0 9.6 0.00 0.00 0.00 88 292.4
20260906101755 74 46 0.0 9.6 0.00 0.00 0.00 88 292.3
20260906100738 74 46 0.0 9.6 0.00 0.00 0.00 87 292.3
20260906100237 74 46 0.0 9.6 0.00 0.00 0.00 87 292.2
20260906095221 75 46 0.0 9.6 0.00 0.00 0.00 87 291.9
20260906094720 75 46 0.0 9.6 0.00 0.00 0.00 87 291.9
20260906093703 75 46 0.0 9.6 0.00 0.00 0.00 87 291.7
20260906093203 75 46 0.0 9.6 0.00 0.00 0.00 86 291.8
20260906092703 75 46 0.0 9.6 0.00 0.00 0.00 86 292.1
20260906092203 75 46 0.0 9.6 0.00 0.00 0.00 86 292.3
20260906091702 75 46 0.0 9.6 0.00 0.00 0.00 86 291.8
20260906091202 75 46 0.0 9.6 0.00 0.00 0.00 86 291.5
20260906090701 75 46 0.0 9.6 0.00 0.00 0.00 86 291.9
20260906090201 75 46 0.0 9.6 0.00 0.00 0.00 86 292.2
20260906084629 75 46 0.0 9.6 0.00 0.00 0.00 86 291.8
20260906084129 76 46 0.0 9.6 0.00 0.00 0.00 86 291.5
20260906083628 76 46 0.0 9.6 0.00 0.00 0.00 86 291.2
20260906082612 76 46 0.0 9.6 0.00 0.00 0.00 85 291.7
20260906082112 76 46 0.0 9.6 0.00 0.00 0.00 85 291.9
20260906081057 76 46 0.0 9.6 0.00 0.00 0.00 85 291.8
20260906080041 76 46 0.0 9.6 0.00 0.00 0.00 84 291.8
20260906075024 76 46 0.0 9.6 0.00 0.00 0.00 83 291.9
20260906074009 77 46 0.0 9.6 0.00 0.00 0.00 84 292.3
20260906072953 77 46 0.0 9.6 0.00 0.00 0.00 83 292.0
20260906072452 77 46 0.0 9.6 0.00 0.00 0.00 83 291.6
20260906071951 77 46 0.0 9.6 0.00 0.00 0.00 83 291.4
20260906071450 77 46 0.0 9.6 0.00 0.00 0.00 83 291.5
20260906070949 77 46 0.0 9.6 0.00 0.00 0.00 84 292.0
20260906070449 77 46 0.0 9.6 0.00 0.00 0.00 84 291.9
20260906065434 77 46 0.0 9.6 0.00 0.00 0.00 83 291.9
20260906064933 77 46 0.0 9.6 0.00 0.00 0.00 83 291.2
20260906064432 77 46 0.0 9.6 0.00 0.00 0.00 83 291.1
20260906063932 77 46 0.0 9.6 0.00 0.00 0.00 83 291.7
20260906063431 77 46 0.0 9.6 0.00 0.00 0.00 83 292.0
20260906062930 77 46 0.0 9.6 0.00 0.00 0.00 82 292.0
20260906062429 78 46 0.0 9.6 0.00 0.00 0.00 82 292.3
20260906061929 78 46 0.0 9.6 0.00 0.00 0.00 82 292.5
20260906061429 78 46 0.0 9.6 0.00 0.00 0.00 82 292.4
20260906060928 78 46 0.0 9.6 0.00 0.00 0.00 82 292.2
20260906060427 78 46 0.0 9.6 0.00 0.00 0.00 82 291.8
20260906055927 78 46 0.0 9.6 0.00 0.00 0.00 82 291.5
20260906055427 78 46 0.0 9.6 0.00 0.00 0.00 82 291.8
20260906054926 78 46 0.0 9.6 0.00 0.00 0.00 82 291.6
20260906054426 78 46 0.0 9.6 0.00 0.00 0.00 81 291.5
20260906053925 78 46 0.0 9.6 0.00 0.00 0.00 81 291.6
20260906053424 78 46 0.0 9.6 0.00 0.00 0.00 80 291.6
20260906052923 79 46 0.0 9.6 0.00 0.00 0.00 80 292.2
20260906052423 79 46 0.0 9.6 0.00 0.00 0.00 80 291.9
20260906051923 79 46 0.0 9.6 0.00 0.00 0.00 80 291.5
20260906051423 79 46 0.0 9.6 0.00 0.00 0.00 79 291.5
20260906050923 79 46 0.0 9.6 0.00 0.00 0.00 79 291.6
20260906045907 79 46 0.0 9.6 0.00 0.00 0.00 79 292.0
20260906044851 79 46 0.0 9.6 0.00 0.00 0.00 79 291.7
20260906044350 79 46 0.0 9.6 0.00 0.00 0.00 79 292.1
20260906043849 79 46 0.0 9.6 0.00 0.00 0.00 79 292.5
20260906043348 79 46 0.0 9.6 0.00 0.00 0.00 79 292.7
20260906042848 79 46 0.0 9.6 0.00 0.00 0.00 79 292.3
20260906042347 79 46 0.0 9.6 0.00 0.00 0.00 79 291.9
20260906041846 79 46 0.0 9.6 0.00 0.00 0.00 79 291.6
20260906041345 79 46 0.0 9.6 0.00 0.00 0.00 79 291.3
20260906040844 80 46 0.0 9.6 0.00 0.00 0.00 79 291.6
20260906040344 80 46 0.0 9.6 0.00 0.00 0.00 78 292.2
20260906035843 80 46 0.0 9.6 0.00 0.00 0.00 78 292.3
20260906035343 80 46 0.0 9.6 0.00 0.00 0.00 78 292.4
20260906034843 80 46 0.0 9.6 0.00 0.00 0.00 77 292.3
20260906033311 81 46 0.0 9.6 0.00 0.00 0.00 76 293.2
20260906032811 81 46 0.0 9.6 0.00 0.00 0.00 75 294.3
20260906032311 81 46 0.0 9.6 0.00 0.00 0.00 73 296.3
20260906031811 81 46 0.0 9.6 0.00 0.00 0.00 73 299.3
20260906031311 81 46 0.0 9.6 0.00 0.00 0.00 72 304.3
20260906030810 81 46 0.0 9.6 0.00 0.00 0.00 73 314.1
20260906030310 81 46 0.0 9.6 0.00 0.00 0.00 73 334.7
20260906025810 82 47 0.9 9.6 0.00 0.00 0.00 73 376.9
20260906024754 82 84 0.0 9.6 0.00 0.00 0.00 70 406.0
20260906023738 83 84 0.0 9.6 0.00 0.00 0.00 69 405.6
20260906023237 84 84 0.0 9.6 0.00 0.00 0.00 69 405.4
20260906022736 84 84 0.0 9.6 0.00 0.00 0.00 68 405.5
20260906022235 84 84 0.0 9.6 0.00 0.00 0.00 67 405.5
20260906021734 85 84 0.0 9.6 0.00 0.00 0.00 67 405.5
20260906021233 85 84 0.0 9.6 0.00 0.00 0.00 67 405.2
20260906020732 85 84 0.0 9.6 0.00 0.00 0.00 67 405.5
20260906015715 86 84 0.0 9.6 0.00 0.00 0.00 64 406.0
20260906015214 86 84 0.0 9.6 0.00 0.00 0.00 62 405.9
20260906014158 87 84 0.0 9.6 0.00 0.00 0.00 61 405.7
20260906013658 88 84 0.0 9.6 0.00 0.00 0.00 61 405.4
20260906013157 88 84 0.0 9.6 0.00 0.00 0.00 60 405.4
20260906012657 88 84 0.0 9.6 0.00 0.00 0.00 59 405.1
20260906012157 89 84 0.0 9.6 0.00 0.00 0.00 58 404.2
20260906011657 90 84 0.0 9.6 0.00 0.00 0.00 57 404.6
20260906011156 90 86 0.0 9.6 0.00 0.00 0.00 57 407.4
20260906010655 91 86 0.0 9.6 0.00 0.00 0.00 55 406.5
20260906010154 92 86 0.0 9.6 0.00 0.00 0.00 56 406.0
20260906005653 93 86 0.0 9.6 0.00 0.00 0.00 53 405.6
20260906005153 94 86 0.0 9.6 0.00 0.00 0.00 51 404.8
20260906004653 95 86 0.0 9.6 0.00 0.00 0.00 48 404.8
20260906004152 96 86 0.0 9.6 0.00 0.00 0.00 46 405.5
20260906003651 97 86 0.0 9.6 0.00 0.00 0.00 46 405.4
20260906003150 97 86 0.0 9.6 0.00 0.00 0.00 45 404.8
20260906001619 99 86 0.0 9.6 0.00 0.00 0.00 42 404.8
20260906001119 99 86 0.0 9.6 0.00 0.00 0.00 41 405.4
20260906000618 99 86 0.0 9.6 0.00 0.00 0.00 41 406.5
20260906000117 100 86 0.0 9.6 0.00 0.00 0.00 40 409.4
20260905235616 100 84 0.0 9.6 0.00 0.00 0.00 40 416.6
20260905235115 100 91 0.9 9.6 0.00 0.00 0.00 40 437.9
20260905234614 100 97 1.7 9.6 0.00 0.00 0.00 39 445.0
20260905233557 101 104 0.0 9.6 0.00 0.00 0.00 39 449.4
20260905233056 102 104 0.0 9.6 0.00 0.00 0.00 38 440.2
20260905232556 102 104 0.0 9.6 0.00 0.00 0.00 38 420.5
20260905232055 102 84 0.0 9.6 0.00 0.00 0.00 39 400.6
20260905231039 102 85 0.0 9.6 0.00 0.00 0.00 38 403.5
20260905230538 102 85 0.0 9.6 0.00 0.00 0.00 39 401.9
20260905230037 101 85 0.0 9.6 0.00 0.00 0.00 39 399.6
20260905225020 101 81 0.0 9.6 0.00 0.00 0.00 39 382.3
20260905224519 101 81 0.9 9.6 0.00 0.00 0.00 39 372.0
20260905224018 101 71 0.9 9.6 0.00 0.00 0.00 39 352.7
20260905223517 101 59 0.0 9.6 0.00 0.00 0.00 39 350.3
20260905223017 101 59 0.0 9.6 0.00 0.00 0.00 39 367.3
20260905222516 101 59 0.0 9.6 0.00 0.00 0.00 39 399.5
20260905222016 101 90 0.0 9.6 0.00 0.00 0.00 39 432.2
20260905221515 100 91 0.0 9.6 0.00 0.00 0.00 39 441.2
20260905221014 100 93 3.5 9.6 0.00 0.00 0.00 39 455.7
20260905220514 100 88 0.0 9.6 0.00 0.00 0.00 41 475.0
20260905220013 100 122 0.0 9.6 0.00 0.00 0.00 41 523.0
20260905215513 100 122 0.0 9.6 0.00 0.00 0.00 41 526.0
20260905215013 99 125 0.0 9.6 0.00 0.00 0.00 41 525.4
20260905213958 99 125 0.9 9.6 0.00 0.00 0.00 41 517.8
20260905213458 99 125 0.0 9.6 0.00 0.00 0.00 41 507.7
20260905212957 99 118 1.7 9.6 0.00 0.00 0.00 41 496.4
20260905212456 100 112 1.7 9.6 0.00 0.00 0.00 41 502.6
20260905211955 100 134 1.7 10.4 0.00 0.00 0.00 40 520.5
20260905211455 101 104 3.5 10.4 0.00 0.00 0.00 40 496.8
20260905210955 102 86 3.5 11.3 0.00 0.00 0.00 39 556.9
20260905205423 101 175 0.0 11.3 0.00 0.00 0.00 40 687.0
20260905204922 101 228 2.6 11.3 0.00 0.00 0.00 40 687.5
20260905203906 101 131 2.6 11.3 0.00 0.00 0.00 40 540.5
20260905202850 100 78 0.0 11.3 0.00 0.00 0.00 41 507.6
20260905202349 100 94 1.7 11.3 0.00 0.00 0.00 40 637.3
20260905201848 100 141 1.7 11.3 0.00 0.00 0.00 40 780.7
20260905200832 100 290 1.7 11.3 0.00 0.00 0.00 40 896.8
20260905200331 100 268 0.0 11.3 0.00 0.00 0.00 41 809.1
20260905195830 99 244 0.9 11.3 0.00 0.00 0.00 41 668.4
20260905195329 99 145 0.0 11.3 0.00 0.00 0.00 41 592.1
20260905194829 99 144 0.0 11.3 0.00 0.00 0.00 43 593.2
20260905193813 99 144 0.0 11.3 0.00 0.00 0.00 40 619.0
20260905193312 100 151 1.7 11.3 0.00 0.00 0.00 41 660.0
20260905192811 100 134 1.7 11.3 0.00 0.00 0.00 42 749.1
20260905192311 99 271 0.0 11.3 0.00 0.00 0.00 43 913.1
20260905191255 99 243 1.7 11.3 0.00 0.00 0.00 42 786.5
20260905190754 100 198 0.9 11.3 0.00 0.00 0.00 42 699.6
20260905185738 100 174 0.9 11.3 0.00 0.00 0.00 43 612.9
20260905185237 99 138 1.7 11.3 0.00 0.00 0.00 43 582.8
20260905184737 99 55 2.6 11.3 0.00 0.00 0.00 44 697.0
20260905184236 98 277 0.0 11.3 0.00 0.00 0.00 45 927.3
20260905183735 97 278 0.9 11.3 0.00 0.00 0.00 45 869.4
20260905183234 97 353 2.6 11.3 0.00 0.00 0.00 46 754.2
20260905182733 96 246 0.0 11.3 0.00 0.00 0.00 47 868.7